Carmi, IL

9:05 PM CST on February 20, 2017 (GMT -0600)
Carmi Municipal

Weather History for KCUL - February, 2013

Change the Weather History Date:

Monday, February 11, 2013

  Actual Average (KEHR) Record (KEHR)
Temperature  
Mean Temperature 46 °F -  
Max Temperature 55 °F 46 °F 78 °F (1932)
Min Temperature 34 °F 27 °F 2 °F (1955)
Degree Days  
Heating Degree Days 20    
Moisture  
Dew Point 32 °F    
Average Humidity 61    
Maximum Humidity 85    
Minimum Humidity 41    
Precipitation  
Precipitation 0.00 in - - ()
Sea Level Pressure  
Sea Level Pressure 30.02 in    
Wind  
Wind Speed 14 mph (WSW)    
Max Wind Speed 25 mph    
Max Gust Speed 36 mph    
Visibility 10 miles    
Events      
Averages and records for this station are not official NWS values.
T = Trace of Precipitation, MM = Missing Value Source: NWS Daily Summary

Daily Weather History Graph

Daily Weather History Graph

Search for Another Location

Airport or City:

Trip Planner

Search our weather history database for the weather conditions in past years. The results will help you decide how hot, cold, wet, or windy it might be!

Date:

Astronomy

Feb. 11, 2013 Rise Set
Actual Time 6:46 AM CST 5:27 PM CST
Civil Twilight 6:19 AM CST 5:54 PM CST
Nautical Twilight 5:48 AM CST 6:25 PM CST
Astronomical Twilight 5:18 AM CST 6:55 PM CST
Moon 7:13 AM CST (2/11) 7:20 PM CST (2/11)
Length of Visible Light 11h 34m
Length of Day
10h 40m
Waxing Crescent, 3% of the Moon is Illuminated
Feb 11
Waxing Crescent
Feb 17
First Quarter
Feb 25
Full
Mar 4
Last Quarter
Mar 11
New

Hourly Weather History & Observations

Time (CST) Temp. Windchill Dew Point Humidity Pressure Visibility Wind Dir Wind Speed Gust Speed Precip Events Conditions
12:15 AM 55.2 °F - 50.2 °F 83% 29.80 in 10.0 mi SW 12.7 mph - N/A   Clear
12:35 AM 54.5 °F - 49.8 °F 84% 29.81 in 10.0 mi SW 12.7 mph - N/A   Clear
12:55 AM 54.7 °F - 49.1 °F 81% 29.80 in 10.0 mi SSW 15.0 mph 20.7 mph N/A   Clear
1:15 AM 54.7 °F - 47.1 °F 76% 29.81 in 10.0 mi SW 13.8 mph - N/A   Clear
1:35 AM 54.1 °F - 45.3 °F 72% 29.82 in 10.0 mi SW 13.8 mph 23.0 mph N/A   Clear
1:55 AM 53.6 °F - 43.0 °F 67% 29.83 in 10.0 mi SW 16.1 mph - N/A   Clear
2:15 AM 52.3 °F - 41.5 °F 67% 29.84 in 10.0 mi WSW 16.1 mph 21.9 mph N/A   Clear
2:35 AM 51.8 °F - 37.2 °F 58% 29.84 in 10.0 mi WSW 19.6 mph 25.3 mph N/A   Clear
2:55 AM 51.3 °F - 33.8 °F 51% 29.85 in 10.0 mi WSW 20.7 mph 26.5 mph N/A   Clear
3:15 AM 50.5 °F - 32.0 °F 49% 29.87 in 10.0 mi WSW 25.3 mph 35.7 mph N/A   Clear
3:35 AM 48.7 °F - 32.9 °F 54% 29.88 in 10.0 mi WSW 16.1 mph 23.0 mph N/A   Clear
3:55 AM 47.7 °F - 33.3 °F 57% 29.89 in 10.0 mi WSW 12.7 mph - N/A   Clear
4:15 AM 46.4 °F 39.0 °F 32.2 °F 58% 29.90 in 10.0 mi WSW 19.6 mph 26.5 mph N/A   Clear
4:35 AM 44.8 °F 37.1 °F 32.0 °F 61% 29.92 in 10.0 mi WSW 18.4 mph - N/A   Clear
4:55 AM 44.1 °F 35.9 °F 31.6 °F 62% 29.93 in 10.0 mi WSW 19.6 mph 25.3 mph N/A   Clear
5:15 AM 43.3 °F 36.5 °F 32.0 °F 64% 29.94 in 10.0 mi WSW 13.8 mph - N/A   Clear
5:35 AM 42.8 °F 36.6 °F 32.0 °F 66% 29.96 in 10.0 mi WSW 11.5 mph - N/A   Clear
5:55 AM 42.1 °F 33.1 °F 29.8 °F 62% 29.97 in 10.0 mi WSW 20.7 mph 32.2 mph N/A   Clear
6:15 AM 41.4 °F 33.0 °F 29.1 °F 62% 29.97 in 10.0 mi WSW 17.3 mph 25.3 mph N/A   Clear
6:35 AM 41.0 °F 32.5 °F 28.9 °F 62% 29.99 in 10.0 mi WSW 17.3 mph 25.3 mph N/A   Clear
6:55 AM 39.7 °F 33.2 °F 29.5 °F 67% 29.99 in 10.0 mi WSW 10.4 mph - N/A   Clear
7:15 AM 40.3 °F 33.4 °F 29.7 °F 66% 30.00 in 10.0 mi WSW 11.5 mph 17.3 mph N/A   Clear
7:35 AM 41.0 °F 33.5 °F 30.0 °F 65% 30.01 in 10.0 mi WSW 13.8 mph - N/A   Clear
7:55 AM 41.5 °F 33.8 °F 29.8 °F 63% 30.02 in 10.0 mi WSW 15.0 mph - N/A   Clear
8:15 AM 42.3 °F 35.5 °F 30.2 °F 62% 30.02 in 10.0 mi WSW 12.7 mph - N/A   Clear
8:35 AM 43.2 °F 36.2 °F 30.7 °F 62% 30.03 in 10.0 mi WSW 13.8 mph 18.4 mph N/A   Clear
8:55 AM 43.7 °F 35.7 °F 30.2 °F 59% 30.03 in 10.0 mi WSW 18.4 mph 26.5 mph N/A   Clear
9:15 AM 44.4 °F 36.1 °F 30.2 °F 57% 30.04 in 10.0 mi WSW 20.7 mph 31.1 mph N/A   Clear
9:35 AM 45.0 °F 36.6 °F 30.9 °F 58% 30.05 in 10.0 mi West 21.9 mph 29.9 mph N/A   Clear
9:55 AM 45.5 °F 37.3 °F 31.6 °F 58% 30.06 in 10.0 mi West 21.9 mph 27.6 mph N/A   Clear
10:15 AM 46.2 °F 39.5 °F 32.2 °F 58% 30.07 in 10.0 mi WSW 16.1 mph 26.5 mph N/A   Clear
10:35 AM 46.4 °F 39.0 °F 32.2 °F 58% 30.06 in 10.0 mi West 19.6 mph - N/A   Clear
10:55 AM 46.8 °F - 31.8 °F 56% 30.07 in 10.0 mi West 18.4 mph - N/A   Clear
11:15 AM 47.3 °F - 32.0 °F 55% 30.06 in 10.0 mi West 19.6 mph 23.0 mph N/A   Clear
11:35 AM 47.7 °F - 32.4 °F 55% 30.06 in 10.0 mi WSW 15.0 mph 23.0 mph N/A   Clear
11:55 AM 48.4 °F - 32.0 °F 53% 30.06 in 10.0 mi West 18.4 mph 25.3 mph N/A   Clear
12:15 PM 48.9 °F - 31.8 °F 52% 30.05 in 10.0 mi WSW 17.3 mph 25.3 mph N/A   Clear
12:35 PM 49.8 °F - 32.4 °F 51% 30.05 in 10.0 mi West 13.8 mph 25.3 mph N/A   Clear
12:55 PM 50.4 °F - 31.3 °F 48% 30.06 in 10.0 mi West 13.8 mph 21.9 mph N/A   Clear
1:15 PM 51.1 °F - 31.5 °F 47% 30.06 in 10.0 mi WSW 13.8 mph 24.2 mph N/A   Clear
1:35 PM 51.6 °F - 31.5 °F 46% 30.06 in 10.0 mi West 18.4 mph 25.3 mph N/A   Clear
1:55 PM 51.4 °F - 31.1 °F 46% 30.06 in 10.0 mi WSW 19.6 mph 26.5 mph N/A   Clear
2:15 PM 51.8 °F - 30.9 °F 45% 30.06 in 10.0 mi West 23.0 mph 27.6 mph N/A   Clear
2:35 PM 52.0 °F - 28.8 °F 41% 30.05 in 10.0 mi West 16.1 mph 23.0 mph N/A   Clear
2:55 PM 52.7 °F - 31.6 °F 45% 30.06 in 10.0 mi WSW 12.7 mph - N/A   Clear
3:15 PM 52.0 °F - 29.1 °F 41% 30.06 in 10.0 mi West 20.7 mph 27.6 mph N/A   Clear
3:35 PM 52.5 °F - 29.7 °F 42% 30.06 in 10.0 mi West 18.4 mph 21.9 mph N/A   Clear
3:55 PM 52.3 °F - 30.9 °F 44% 30.07 in 10.0 mi WSW 15.0 mph - N/A   Clear
4:55 PM 50.4 °F - 31.3 °F 48% 30.06 in 10.0 mi West 9.2 mph - N/A   Clear
5:15 PM 49.3 °F - 29.8 °F 47% 30.07 in 10.0 mi West 10.4 mph 17.3 mph N/A   Clear
5:35 PM 47.3 °F - 30.6 °F 52% 30.07 in 10.0 mi West 10.4 mph - N/A   Clear
5:55 PM 45.7 °F 41.5 °F 30.4 °F 55% 30.07 in 10.0 mi West 8.1 mph - N/A   Clear
6:15 PM 44.2 °F 41.0 °F 30.0 °F 57% 30.08 in 10.0 mi West 5.8 mph - N/A   Clear
6:35 PM 44.4 °F 40.5 °F 29.5 °F 56% 30.09 in 10.0 mi WSW 6.9 mph - N/A   Clear
6:55 PM 42.6 °F 39.0 °F 31.5 °F 65% 30.09 in 10.0 mi WSW 5.8 mph - N/A   Clear
7:15 PM 42.3 °F 39.4 °F 30.9 °F 64% 30.10 in 10.0 mi WSW 4.6 mph - N/A   Clear
7:35 PM 42.3 °F 40.5 °F 30.4 °F 63% 30.10 in 10.0 mi SW 3.5 mph - N/A   Clear
7:55 PM 41.0 °F 39.0 °F 30.4 °F 66% 30.10 in 10.0 mi WSW 3.5 mph - N/A   Clear
8:15 PM 42.1 °F 39.2 °F 29.5 °F 61% 30.11 in 10.0 mi West 4.6 mph - N/A   Clear
8:35 PM 41.4 °F 38.4 °F 28.8 °F 61% 30.12 in 10.0 mi WSW 4.6 mph - N/A   Clear
8:55 PM 39.6 °F 36.3 °F 30.2 °F 69% 30.12 in 10.0 mi WSW 4.6 mph - N/A   Clear
9:15 PM 38.5 °F 35.0 °F 30.6 °F 73% 30.13 in 10.0 mi SW 4.6 mph - N/A   Clear
9:35 PM 38.1 °F 34.6 °F 30.2 °F 73% 30.13 in 10.0 mi WSW 4.6 mph - N/A   Clear
9:55 PM 39.7 °F 36.5 °F 29.1 °F 66% 30.13 in 10.0 mi West 4.6 mph - N/A   Clear
10:15 PM 36.9 °F 33.1 °F 30.4 °F 77% 30.13 in 10.0 mi WSW 4.6 mph - N/A   Clear
10:35 PM 36.3 °F 32.5 °F 31.1 °F 81% 30.14 in 10.0 mi WSW 4.6 mph - N/A   Clear
10:55 PM 36.9 °F 33.1 °F 29.3 °F 74% 30.15 in 10.0 mi West 4.6 mph - N/A   Clear
11:15 PM 36.0 °F 32.1 °F 30.4 °F 80% 30.15 in 10.0 mi West 4.6 mph - N/A   Clear
11:35 PM 36.3 °F - 29.3 °F 76% 30.15 in 10.0 mi Calm Calm - N/A   Clear
11:55 PM 34.5 °F 30.4 °F 30.6 °F 85% 30.15 in 10.0 mi West 4.6 mph - N/A   Clear